Probability
0 0 0 0 0 0 0 0 0 0 0 0 6 10 16 26 19 19 26 29 23 23 16 16 16 16 16 16 13 10 3 13 13 16 19 16 13 16 19 16 13 13 16 16
0 0 0 0 0 0 0 0 0 0 0 0 3 13 16 23 16 23 32 32 23 19 16 13 16 13 6 3 3 3 10 16 16 16 13 13 13 16 16 19 19 16 19 13
0 0 0 0 0 0 0 0 0 0 0 0 3 16 23 29 39 35 29 29 26 19 16 16 13 10 3 3 6 10 13 13 13 16 16 13 13 16 13 13 13 10 10 13
0 0 0 0 0 0 0 0 0 0 0 0 0 0 6 19 23 32 26 19 13 10 13 13 13 10 10 10 13 13 13 13 13 13 10 13 13 13 13 13 6 6 6 10
0 0 0 0 0 0 0 0 0 0 0 0 0 0 0 10 16 19 19 19 6 6 10 10 13 16 16 13 13 13 13 13 13 13 10 10 3 6 10 6 6 6 6 6
0 0 0 0 0 0 0 0 0 0 0 0 0 0 0 0 10 16 13 19 6 6 13 13 10 13 13 16 13 13 10 13 10 10 6 6 6 6 3 6 6 6 6 6
0 0 0 0 0 0 0 0 0 0 0 0 0 0 3 3 6 10 13 16 13 16 16 10 6 6 13 10 10 10 10 10 10 10 6 6 6 6 3 3 3 6 6 3
0 0 0 0 0 0 0 0 0 0 0 0 0 0 3 6 0 3 10 6 10 3 6 3 6 3 3 3 3 3 6 6 6 6 3 3 3 0 0 0 0 0 3 3
0 0 0 0 0 0 0 0 0 0 0 0 0 0 3 3 3 6 6 3 3 0 0 0 0 3 3 3 3 3 3 3 3 3 3 3 0 0 0 0 0 0 0 0
0 0 0 0 0 0 0 0 0 0 0 0 0 0 0 3 0 3 6 3 3 0 0 0 0 0 3 3 3 3 3 3 3 3 0 0 0 0 0 0 0 0 0 0
0 0 0 0 0 0 0 0 0 0 0 0 0 0 0 3 0 3 3 3 3 0 0 0 0 0 0 0 3 3 0 0 0 0 0 0 0 0 0 0 0 0 0 0
0 0 0 0 0 0 0 0 0 0 0 0 0 0 0 0 0 0 3 3 3 0 0 0 0 0 0 0 0 0 0 0 0 0 0 0 0 0 0 0 0 0 0 0
0 0 0 0 0 0 0 0 0 0 0 0 0 3 0 0 0 0 3 3 3 0 0 0 0 0 0 0 0 0 0 0 0 0 0 0 0 0 0 0 0 0 0 0
0 0 0 0 0 0 0 0 0 0 0 0 0 3 0 0 0 3 0 0 0 0 0 0 0 0 0 0 0 0 0 0 0 0 0 0 0 0 0 0 0 0 0 0
0 0 0 0 0 0 0 0 0 0 0 0 0 0 0 0 0 3 0 0 0 0 0 0 0 0 0 0 0 0 0 0 0 0 0 0 0 0 0 0 0 0 0 0
0 0 0 0 0 0 0 0 0 0 0 0 0 0 0 0 0 0 0 0 0 0 0 0 0 0 0 0 0 0 0 0 0 0 0 0 0 0 0 0 0 0 0 0
0 0 0 0 0 0 0 0 0 0 0 0 0 0 0 0 0 0 0 0 0 0 0 0 0 0 0 0 0 0 0 0 0 0 0 0 0 0 0 0 0 0 0 0
0 0 0 0 0 0 0 0 0 0 0 0 0 0 0 0 0 3 0 0 0 0 0 0 0 0 0 0 0 0 0 0 0 0 0 0 0 0 0 0 0 0 0 0
0 0 0 0 0 0 0 0 0 0 0 0 0 0 0 0 0 0 0 0 0 0 0 0 0 0 0 0 0 0 0 0 0 0 0 0 0 0 0 0 0 0 0 0
0 0 0 0 0 0 0 0 0 0 0 0 0 0 0 0 0 0 0 0 0 0 0 0 0 0 0 0 0 0 0 0 0 0 0 0 0 0 0 0 0 0 0 0
0 0 0 0 0 0 0 0 0 0 0 0 0 0 0 0 0 0 0 0 0 0 0 0 0 0 0 0 0 0 0 0 0 0 0 0 0 0 0 0 0 0 0 0
0 0 0 0 0 0 0 0 0 0 0 0 0 0 0 0 0 0 0 0 0 0 0 0 0 0 0 0 0 0 0 0 0 0 0 0 0 0 0 0 0 0 0 0
0 0 0 0 0 0 0 0 0 0 0 0 0 0 0 0 0 0 0 0 0 0 0 0 0 0 0 0 0 0 0 0 0 0 0 0 0 0 0 0 0 0 0 0
0 0 0 0 0 0 0 0 0 0 0 0 0 0 0 0 0 0 0 0 0 0 0 0 0 0 0 0 0 0 0 0 0 0 0 0 0 0 0 0 0 0 0 0
0 0 0 0 0 0 0 0 0 0 0 0 0 0 0 0 0 0 0 0 0 0 0 0 0 0 0 0 0 0 0 0 0 0 0 0 0 0 0 0 0 0 0 0
0 0 0 0 0 0 0 0 0 0 0 0 0 0 0 0 0 0 0 0 0 0 0 0 0 0 0 0 0 0 0 0 0 0 0 0 0 0 0 0 0 0 0 0
Height
5832 5836 5837 5839 5841 5843 5844 5845 5847 5848 5849 5850 5851 5852 5852 5852 5852 5853 5853 5853 5853 5853 5853 5852 5851 5850 5850 5849 5849 5848 5847 5846 5846 5846 5845 5844 5843 5841 5840 5839 5838 5837 5837 5837
5832 5834 5835 5837 5838 5840 5841 5842 5844 5845 5847 5848 5848 5849 5848 5848 5849 5849 5849 5849 5849 5849 5850 5850 5848 5847 5847 5846 5845 5843 5842 5842 5841 5840 5839 5838 5837 5835 5834 5833 5832 5831 5831 5830
5830 5833 5833 5835 5836 5837 5839 5841 5842 5843 5844 5845 5846 5846 5845 5845 5845 5845 5845 5845 5846 5846 5846 5845 5845 5844 5843 5842 5840 5839 5838 5837 5836 5835 5833 5832 5831 5830 5828 5826 5825 5824 5823 5823
5828 5830 5831 5833 5834 5836 5837 5838 5840 5841 5842 5842 5844 5843 5842 5842 5841 5841 5841 5841 5842 5841 5841 5841 5840 5838 5838 5837 5836 5835 5833 5832 5830 5829 5827 5826 5824 5823 5821 5820 5818 5817 5816 5815
5826 5828 5829 5831 5832 5834 5835 5836 5837 5838 5839 5840 5840 5841 5840 5838 5837 5838 5838 5838 5838 5837 5836 5836 5835 5834 5833 5832 5831 5829 5827 5826 5824 5822 5821 5819 5817 5816 5814 5813 5811 5810 5808 5808
5826 5827 5828 5829 5830 5831 5832 5834 5835 5835 5836 5837 5837 5838 5837 5835 5835 5834 5834 5834 5833 5833 5832 5831 5830 5829 5828 5827 5825 5823 5821 5819 5818 5816 5814 5812 5810 5809 5807 5805 5804 5802 5801 5800
5825 5826 5827 5827 5828 5829 5830 5832 5833 5833 5833 5834 5834 5834 5834 5832 5832 5831 5830 5829 5828 5828 5827 5826 5826 5824 5823 5821 5819 5816 5814 5813 5811 5809 5806 5804 5803 5801 5799 5798 5796 5795 5793 5792
5824 5825 5826 5826 5827 5827 5828 5829 5830 5830 5831 5831 5831 5830 5831 5830 5827 5826 5825 5824 5823 5823 5822 5821 5820 5819 5817 5815 5812 5810 5808 5806 5804 5801 5799 5797 5795 5793 5791 5790 5788 5787 5786 5785
5822 5824 5824 5824 5825 5825 5825 5826 5827 5827 5827 5828 5827 5827 5827 5826 5823 5821 5820 5820 5819 5818 5817 5816 5814 5813 5811 5808 5806 5804 5801 5799 5796 5793 5791 5789 5787 5785 5783 5782 5780 5779 5778 5777
5820 5821 5822 5822 5823 5823 5823 5823 5824 5824 5824 5824 5824 5824 5824 5821 5819 5818 5817 5816 5815 5814 5812 5811 5809 5807 5804 5802 5799 5796 5794 5791 5788 5785 5783 5781 5779 5777 5775 5774 5772 5771 5770 5769
5818 5819 5820 5820 5820 5820 5821 5821 5820 5820 5820 5820 5819 5822 5820 5818 5817 5815 5813 5812 5810 5809 5807 5805 5803 5801 5798 5795 5792 5789 5786 5783 5781 5778 5775 5773 5771 5769 5768 5766 5765 5763 5762 5761
5816 5817 5817 5817 5818 5818 5818 5818 5818 5818 5817 5817 5816 5819 5815 5815 5813 5812 5810 5808 5806 5804 5803 5800 5798 5795 5792 5789 5786 5783 5779 5776 5774 5771 5769 5766 5764 5762 5761 5759 5757 5756 5754 5753
5813 5814 5814 5814 5816 5816 5815 5814 5814 5814 5814 5813 5813 5815 5812 5810 5809 5807 5806 5804 5802 5800 5798 5795 5792 5789 5786 5783 5780 5777 5774 5771 5768 5765 5763 5760 5758 5756 5754 5752 5750 5748 5746 5745
5810 5810 5812 5812 5812 5811 5811 5811 5811 5811 5811 5810 5810 5810 5808 5806 5805 5803 5801 5799 5797 5795 5792 5789 5787 5784 5781 5778 5775 5772 5769 5766 5763 5760 5757 5755 5752 5750 5748 5746 5744 5741 5739 5737
5808 5808 5808 5808 5808 5807 5807 5808 5808 5807 5808 5807 5807 5806 5805 5803 5801 5799 5797 5795 5793 5790 5787 5784 5781 5778 5775 5773 5770 5767 5764 5761 5758 5755 5752 5749 5747 5744 5742 5740 5737 5735 5733 5731
5806 5806 5806 5806 5805 5805 5805 5804 5805 5805 5804 5804 5803 5802 5800 5799 5796 5794 5793 5790 5788 5785 5783 5780 5777 5774 5771 5768 5765 5762 5759 5756 5753 5750 5747 5744 5742 5739 5737 5735 5732 5730 5728 5726
5803 5804 5804 5804 5803 5803 5803 5802 5802 5801 5800 5800 5799 5798 5796 5794 5792 5790 5788 5786 5783 5781 5778 5775 5771 5769 5766 5763 5760 5758 5755 5752 5749 5746 5743 5740 5737 5735 5733 5731 5728 5726 5724 5722
5802 5802 5802 5802 5802 5801 5802 5799 5799 5798 5797 5796 5795 5794 5792 5791 5788 5786 5784 5781 5779 5776 5773 5770 5767 5764 5761 5758 5756 5753 5751 5748 5745 5742 5739 5736 5734 5732 5729 5727 5725 5723 5721 5719
5801 5801 5800 5800 5799 5799 5798 5797 5796 5795 5794 5793 5792 5791 5789 5787 5784 5782 5779 5777 5774 5771 5768 5765 5762 5759 5757 5754 5752 5749 5747 5744 5741 5738 5736 5733 5731 5729 5727 5725 5723 5721 5719 5717
5800 5800 5799 5798 5797 5797 5798 5796 5794 5793 5792 5791 5789 5788 5786 5783 5781 5779 5776 5773 5769 5766 5764 5761 5758 5755 5753 5750 5748 5746 5743 5741 5738 5736 5733 5731 5729 5727 5725 5723 5721 5719 5718 5716
5799 5798 5797 5796 5795 5795 5795 5793 5793 5792 5791 5788 5786 5784 5783 5780 5778 5776 5772 5769 5765 5762 5760 5757 5755 5752 5750 5747 5745 5742 5740 5738 5736 5734 5732 5729 5727 5725 5723 5722 5720 5719 5717 5716
5798 5797 5796 5795 5794 5796 5793 5792 5791 5790 5787 5785 5783 5781 5779 5777 5775 5772 5769 5766 5762 5759 5756 5754 5751 5749 5747 5745 5742 5740 5738 5736 5734 5732 5730 5728 5726 5725 5723 5722 5720 5719 5718 5716
5796 5796 5794 5794 5795 5792 5791 5790 5788 5787 5785 5783 5781 5779 5777 5774 5772 5769 5766 5763 5760 5757 5754 5751 5749 5747 5745 5743 5741 5739 5738 5735 5733 5731 5730 5728 5726 5725 5723 5722 5721 5720 5719 5718
5795 5794 5793 5792 5791 5790 5789 5788 5786 5785 5783 5781 5779 5777 5774 5772 5769 5766 5763 5760 5757 5754 5752 5750 5748 5746 5744 5742 5740 5739 5737 5735 5733 5731 5730 5728 5727 5726 5724 5723 5722 5721 5720 5719
5793 5792 5791 5791 5789 5788 5787 5786 5785 5783 5781 5779 5777 5775 5772 5769 5767 5764 5761 5759 5756 5753 5751 5749 5747 5745 5743 5742 5740 5739 5737 5735 5734 5732 5731 5730 5728 5727 5726 5725 5724 5723 5722 5722
5791 5791 5790 5789 5789 5787 5786 5784 5783 5782 5780 5777 5775 5772 5770 5768 5765 5763 5760 5757 5755 5753 5751 5749 5747 5746 5744 5742 5741 5739 5738 5736 5735 5734 5733 5731 5730 5729 5728 5727 5726 5726 5725 5725
Wind_Speed
11 11 11 11 11 11 10 10 10 10 10 10 11 14 16 18 16 16 17 17 17 15 16 17 17 16 16 16 16 18 18 18 20 21 22 23 23 23 23 24 24 25 25 25
11 11 12 12 13 13 11 9 8 9 10 11 13 14 17 18 17 17 18 19 18 17 17 16 16 16 17 18 18 18 18 19 21 22 23 24 24 25 25 25 25 25 26 26
12 12 12 13 13 13 11 10 9 10 10 11 14 16 18 19 19 19 18 18 17 16 17 16 17 17 17 18 19 20 20 21 22 23 24 25 25 26 26 26 26 27 27 27
11 11 11 11 12 12 12 12 13 12 11 13 14 16 16 19 18 18 18 18 17 17 16 17 17 17 17 19 20 21 21 22 23 24 25 26 27 27 27 28 28 28 28 28
10 10 10 9 10 12 13 15 15 15 15 16 17 18 19 20 19 19 19 19 17 17 17 17 17 18 19 20 21 21 22 23 24 24 25 26 27 27 28 28 29 29 28 28
9 9 9 9 10 11 12 14 16 17 18 19 19 19 21 21 20 20 20 19 19 16 16 17 18 18 19 20 21 21 22 24 25 25 26 27 28 28 28 28 28 28 27 27
9 9 8 8 10 10 12 13 14 15 15 17 18 20 20 20 21 21 21 21 20 17 16 16 17 18 20 20 21 22 23 25 26 27 27 28 28 28 29 29 28 28 27 27
8 9 8 9 10 10 10 12 13 14 15 15 17 19 18 18 19 20 21 21 20 18 16 16 17 19 20 21 22 23 24 26 27 28 29 29 29 29 29 29 29 28 28 28
7 8 8 9 10 10 11 12 14 14 14 15 15 15 15 16 17 18 18 18 17 16 16 16 18 19 21 22 24 24 25 27 27 28 29 30 29 29 29 29 29 29 28 28
9 10 10 10 11 11 11 12 14 14 14 15 16 15 14 14 15 16 16 17 17 15 15 17 18 20 22 23 25 25 26 27 27 27 27 27 27 28 28 28 28 28 28 29
8 10 10 11 12 12 13 13 13 14 15 16 16 14 14 14 14 14 15 15 16 16 16 18 20 22 23 23 24 25 26 26 26 26 25 25 25 25 26 26 26 26 27 28
8 9 10 11 12 13 14 14 14 14 14 16 16 15 14 15 15 15 16 17 17 17 17 19 21 22 22 23 24 24 25 25 25 24 24 24 23 23 24 24 25 25 26 25
8 8 9 11 12 13 15 15 15 16 15 15 16 16 15 17 16 16 16 18 18 18 18 20 21 21 22 23 23 23 23 23 23 23 23 23 23 23 23 24 24 24 24 24
9 9 9 10 11 12 13 14 15 15 15 14 15 15 15 17 17 17 17 17 17 18 19 21 21 21 21 21 21 21 21 21 21 22 22 22 22 23 23 23 23 23 23 23
8 7 8 9 10 11 12 13 14 15 14 15 15 15 15 15 16 16 18 19 19 19 20 19 19 19 19 20 20 20 20 20 21 21 21 21 21 22 21 21 21 21 20 20
6 6 7 7 8 9 10 11 12 11 11 13 14 15 14 14 16 16 18 19 19 19 19 19 19 18 18 19 19 19 19 19 20 20 20 20 19 19 18 18 18 17 17 17
5 5 5 5 7 8 9 9 9 9 11 12 13 12 13 14 14 16 17 18 18 19 19 20 19 17 18 18 18 18 18 18 18 18 18 18 17 17 16 15 15 15 14 14
5 5 5 5 6 7 7 8 8 9 9 10 12 12 13 13 14 16 16 17 18 19 19 19 18 18 18 17 16 16 17 17 17 17 16 16 15 14 14 14 14 13 12 12
5 5 6 6 7 7 7 7 8 8 9 10 11 11 11 13 14 16 17 17 17 17 17 17 17 17 16 15 15 15 15 16 16 15 14 14 12 12 12 12 11 11 10 10
4 4 5 6 7 7 7 8 9 9 9 10 11 11 11 13 14 15 15 16 17 17 16 16 16 15 14 14 14 14 14 14 13 13 12 11 10 10 10 9 9 9 8 7
3 5 5 6 6 5 6 7 8 9 9 10 10 11 12 13 14 14 16 17 17 16 16 15 14 13 13 13 13 12 12 12 11 11 9 9 9 9 8 7 6 7 6 6
5 5 6 6 6 5 6 7 8 9 9 9 10 11 12 13 14 15 16 16 16 15 14 13 12 11 11 10 10 10 9 9 9 8 8 7 7 7 6 6 6 6 7 6
5 6 6 6 6 6 7 7 8 9 9 10 10 11 12 13 14 14 15 15 14 13 12 11 10 10 9 8 8 8 8 8 8 7 7 6 6 6 6 6 6 7 7 7
5 6 6 6 6 6 7 7 8 9 10 11 11 12 12 13 13 13 13 13 12 12 11 9 8 8 7 6 6 6 6 7 8 7 7 6 7 7 8 8 8 8 8 8
5 6 6 6 6 8 8 8 8 8 10 11 12 12 12 12 12 12 11 11 11 10 8 7 7 7 7 6 6 6 6 7 7 7 7 8 8 8 8 9 9 10 10 10
6 5 5 6 6 7 7 8 8 9 9 11 11 11 11 11 10 10 10 9 9 8 7 7 7 7 7 6 6 7 7 7 7 8 8 8 9 10 10 10 11 11 12 12
Wind_Direction
184 178 181 185 185 184 190 199 208 217 229 244 251 253 251 253 257 264 268 272 273 275 281 285 284 280 282 285 286 282 277 280 281 282 283 282 283 283 280 279 279 278 277 274
172 174 180 186 188 188 194 197 211 223 234 247 252 250 251 255 257 265 271 270 267 272 279 284 281 280 283 285 286 286 283 284 283 283 283 284 283 283 282 280 279 279 276 274
172 175 181 184 188 193 198 204 208 222 236 243 248 251 254 263 261 266 274 271 269 275 279 284 282 282 283 284 285 286 285 284 285 285 284 284 284 283 282 282 282 281 280 277
176 182 187 193 199 204 208 212 217 222 237 245 250 257 263 266 264 270 274 278 279 280 280 280 282 284 286 286 286 287 286 286 287 286 285 285 284 284 282 282 282 282 280 279
181 187 190 198 207 212 218 224 229 232 240 250 255 263 264 267 269 273 279 281 280 279 282 283 280 281 285 286 286 287 288 288 288 288 286 286 285 285 284 283 284 282 280 279
185 190 197 202 208 218 227 229 231 234 240 247 253 258 260 263 268 276 279 281 281 278 280 285 287 285 287 289 289 289 290 290 289 288 287 287 287 286 285 285 283 282 281 280
194 192 202 206 213 220 226 231 236 241 248 252 250 256 263 268 271 275 278 282 279 275 277 283 286 288 290 290 291 292 292 291 289 288 287 287 286 286 285 284 283 282 281 280
203 193 203 213 215 222 226 234 244 249 250 256 253 261 268 274 273 276 280 283 279 279 280 281 289 293 292 293 294 292 292 292 290 288 287 286 285 286 284 283 282 282 281 280
221 207 212 218 227 233 235 241 250 257 259 263 269 275 281 287 284 283 282 284 284 282 282 284 293 296 295 295 295 293 292 292 292 290 289 286 284 284 284 283 281 281 280 279
234 226 226 230 233 238 247 252 256 260 269 271 274 285 295 300 294 292 291 291 292 289 290 290 294 296 296 297 296 297 296 295 295 292 290 289 287 285 285 284 282 280 279 279
252 241 242 240 241 245 251 256 261 268 272 278 284 289 299 303 308 306 302 300 298 297 296 295 297 299 299 298 298 298 297 296 295 294 292 290 289 287 287 286 284 282 280 280
257 248 244 246 247 254 257 260 265 269 276 283 292 297 301 308 312 310 310 308 302 297 299 302 303 303 301 300 300 300 300 299 297 295 293 292 290 289 288 288 286 285 283 281
269 261 250 248 250 257 257 262 268 271 276 284 291 299 302 306 310 310 309 308 307 304 301 305 305 304 304 303 303 302 301 299 298 297 296 294 293 293 292 291 290 288 286 284
275 269 260 256 256 255 254 258 263 270 275 280 287 296 304 305 308 309 310 307 306 305 304 306 305 303 303 304 304 303 302 301 300 298 297 296 295 294 293 293 293 291 288 285
272 267 259 256 257 257 256 259 264 268 274 280 291 299 309 310 307 306 308 310 308 308 308 307 306 305 303 302 302 303 304 304 303 302 300 298 298 296 294 294 295 294 292 289
268 261 256 254 257 260 262 266 268 277 282 286 292 299 307 308 309 310 310 313 312 311 310 310 307 306 306 305 304 303 304 305 305 304 302 302 301 300 298 297 299 299 297 295
267 263 255 254 260 265 262 271 280 282 286 291 298 300 305 308 309 312 313 316 314 311 310 310 309 306 308 306 305 305 307 308 308 308 308 306 304 304 303 302 303 304 303 301
266 267 262 268 276 278 281 277 280 289 295 296 304 307 309 308 311 312 313 316 316 315 311 311 310 308 306 306 306 307 310 310 310 310 312 311 308 307 306 308 309 310 309 310
272 275 278 284 295 296 301 298 298 302 302 305 307 309 310 312 314 314 315 316 317 316 315 313 312 311 309 307 306 307 310 312 314 314 314 316 314 312 311 312 312 314 317 321
285 284 289 294 294 296 305 304 306 308 308 311 312 313 313 316 316 316 319 319 318 318 316 315 315 313 313 311 310 311 314 316 320 320 318 319 320 321 322 326 327 329 330 335
315 307 302 308 310 307 311 312 314 316 318 313 314 313 313 315 319 321 322 322 321 319 317 317 318 318 317 316 316 318 321 322 322 325 324 325 328 333 337 345 352 355 359 1
318 317 314 313 318 324 323 320 320 319 319 319 321 320 319 319 320 322 323 323 324 323 323 323 326 327 326 323 325 328 330 334 337 336 335 342 349 356 1 10 20 25 25 25
321 325 326 323 320 324 325 324 327 326 326 327 327 326 324 324 323 324 325 327 329 331 331 332 333 334 335 334 336 340 343 349 351 352 356 1 5 11 22 33 41 42 41 42
321 324 325 324 325 330 331 330 327 326 328 330 329 328 328 327 327 329 332 335 336 337 339 342 344 345 346 350 357 359 1 3 4 13 24 29 32 40 48 56 60 58 57 62
316 317 319 324 329 335 333 332 329 326 327 328 328 329 330 329 331 335 339 343 346 347 352 359 360 360 1 5 10 12 15 21 29 38 44 48 49 54 62 68 71 72 71 75
307 311 314 321 327 328 330 329 333 332 331 332 334 336 338 337 339 342 347 352 357 3 9 11 14 18 22 28 30 35 39 45 52 59 59 57 59 67 72 76 77 78 80 83